Satellite: LO-19
Catalog number: 20442
Epoch time:      05355.69754819
Element set:     565
Inclination:      098.2051 deg
RA of node:       019.8390 deg
Eccentricity:    0.0012437
Arg of perigee:   007.9518 deg
Mean anomaly:     352.1855 deg
Mean motion:   14.31949056 rev/day
Decay rate:        2.7e-07 rev/day^2
Epoch rev:           83105
Checksum:              315

Satellite: UO-22
Catalog number: 21575
Epoch time:      05355.94582605
Element set:    0584
Inclination:      098.2722 deg
RA of node:       314.4714 deg
Eccentricity:    0.0006500
Arg of perigee:   241.7971 deg
Mean anomaly:     118.2568 deg
Mean motion:   14.39525237 rev/day
Decay rate:        1.7e-07 rev/day^2
Epoch rev:           75751
Checksum:              310

Satellite: KO-23
Catalog number: 22077
Epoch time:      05355.81113225
Element set:     664
Inclination:      066.0839 deg
RA of node:       113.5197 deg
Eccentricity:    0.0009448
Arg of perigee:   209.5852 deg
Mean anomaly:     150.4630 deg
Mean motion:   12.86434690 rev/day
Decay rate:       -3.7e-07 rev/day^2
Epoch rev:           62772
Checksum:              303

Satellite: AO-27
Catalog number: 22825
Epoch time:      05356.52886100
Element set:     292
Inclination:      098.2654 deg
RA of node:       342.2077 deg
Eccentricity:    0.0009425
Arg of perigee:   065.9524 deg
Mean anomaly:     294.2627 deg
Mean motion:   14.29155941 rev/day
Decay rate:      -1.02e-06 rev/day^2
Epoch rev:           63812
Checksum:              307

Satellite: IO-26
Catalog number: 22826
Epoch time:      05356.87868770
Element set:     976
Inclination:      098.2608 deg
RA of node:       343.7935 deg
Eccentricity:    0.0009988
Arg of perigee:   063.0111 deg
Mean anomaly:     297.2091 deg
Mean motion:   14.29399148 rev/day
Decay rate:        1.8e-07 rev/day^2
Epoch rev:           63824
Checksum:              356

Satellite: KO-25
Catalog number: 22828
Epoch time:      05356.55498481
Element set:     221
Inclination:      098.2552 deg
RA of node:       343.6554 deg
Eccentricity:    0.0011031
Arg of perigee:   040.5019 deg
Mean anomaly:     319.6980 deg
Mean motion:   14.29709835 rev/day
Decay rate:        2.7e-07 rev/day^2
Epoch rev:           60643
Checksum:              306

Satellite: PO-28
Catalog number: 22829
Epoch time:      05355.83801619
Element set:     259
Inclination:      098.2524 deg
RA of node:       344.0075 deg
Eccentricity:    0.0010614
Arg of perigee:   044.5144 deg
Mean anomaly:     315.6886 deg
Mean motion:   14.30084155 rev/day
Decay rate:        6.9e-07 rev/day^2
Epoch rev:           63829
Checksum:              312

Satellite: TO-31
Catalog number: 25396
Epoch time:      05355.77747429
Element set:     418
Inclination:      098.5057 deg
RA of node:       057.1759 deg
Eccentricity:    0.0002950
Arg of perigee:   012.3396 deg
Mean anomaly:     347.7869 deg
Mean motion:   14.23692584 rev/day
Decay rate:       1.37e-06 rev/day^2
Epoch rev:           38710
Checksum:              343

Satellite: GO-32
Catalog number: 25397
Epoch time:      05355.72932200
Element set:    0909
Inclination:      098.4958 deg
RA of node:       054.2637 deg
Eccentricity:    0.0001730
Arg of perigee:   043.5039 deg
Mean anomaly:     316.6287 deg
Mean motion:   14.23094570 rev/day
Decay rate:       -9.1e-07 rev/day^2
Epoch rev:           38700
Checksum:              305

Satellite: UO-36
Catalog number: 25693
Epoch time:      05356.71047581
Element set:     875
Inclination:      064.5584 deg
RA of node:       064.7318 deg
Eccentricity:    0.0003384
Arg of perigee:   219.7286 deg
Mean anomaly:     140.3541 deg
Mean motion:   14.78564790 rev/day
Decay rate:       -1.9e-07 rev/day^2
Epoch rev:           35969
Checksum:              343

Satellite: SO-41
Catalog number: 26545
Epoch time:      05356.68182918
Element set:     254
Inclination:      064.5571 deg
RA of node:       077.5136 deg
Eccentricity:    0.0057412
Arg of perigee:   276.4772 deg
Mean anomaly:     082.9805 deg
Mean motion:   14.80214820 rev/day
Decay rate:       1.02e-06 rev/day^2
Epoch rev:           28282
Checksum:              308

Satellite: MO-46
Catalog number: 26548
Epoch time:      05355.68157081
Element set:     367
Inclination:      064.5584 deg
RA of node:       060.7298 deg
Eccentricity:    0.0052229
Arg of perigee:   272.3227 deg
Mean anomaly:     087.1926 deg
Mean motion:   14.82879931 rev/day
Decay rate:       3.04e-06 rev/day^2
Epoch rev:           28308
Checksum:              337

Satellite: SO-42
Catalog number: 26549
Epoch time:      05355.73315080
Element set:    0326
Inclination:      064.5572 deg
RA of node:       090.0748 deg
Eccentricity:    0.0060778
Arg of perigee:   279.4264 deg
Mean anomaly:     079.9969 deg
Mean motion:   14.79087100 rev/day
Decay rate:        4.3e-07 rev/day^2
Epoch rev:           28249
Checksum:              336

Satellite: NO-44
Catalog number: 26931
Epoch time:      05355.76899786
Element set:    0196
Inclination:      067.0519 deg
RA of node:       104.6589 deg
Eccentricity:    0.0006090
Arg of perigee:   274.9135 deg
Mean anomaly:     085.1282 deg
Mean motion:   14.29416841 rev/day
Decay rate:      -1.46e-06 rev/day^2
Epoch rev:           22057
Checksum:              334

